Time,TemperatureF,DewpointF,PressureIn,WindDirection,WindDirectionDegrees,WindSpeedMPH,WindSpeedGustMPH,Humidity,HourlyPrecipIn,Conditions,Clouds,dailyrainin,SolarRadiationWatts/m^2,SoftwareType,DateUTC
2013-08-18 00:12:00,43.0,41.0,-100.00,NNE,16,1.0,2.0,92,-99.99,,,0.02,0.000000,,2013-08-18 08:12:00,
2013-08-18 00:21:00,43.0,41.0,-100.00,NNE,16,1.0,2.0,92,-99.99,,,0.02,0.000000,,2013-08-18 08:21:00,
2013-08-18 00:32:00,43.0,41.0,-100.00,NNE,16,1.0,2.0,92,-99.99,,,0.02,0.000000,,2013-08-18 08:32:00,
2013-08-18 00:33:00,43.0,41.0,-100.00,North,7,0.0,1.0,94,0.02,,,0.04,0.000000,,2013-08-18 08:33:00,
2013-08-18 00:52:00,43.0,41.0,-100.00,North,7,0.0,1.0,94,0.02,,,0.04,0.000000,,2013-08-18 08:52:00,
2013-08-18 01:01:00,43.0,41.0,-100.00,North,7,0.0,1.0,94,0.02,,,0.04,0.000000,,2013-08-18 09:01:00,
2013-08-18 01:11:00,43.0,41.0,-100.00,North,7,0.0,1.0,94,0.02,,,0.04,0.000000,,2013-08-18 09:11:00,
2013-08-18 01:21:00,43.0,41.0,-100.00,North,7,0.0,1.0,94,0.02,,,0.04,0.000000,,2013-08-18 09:21:00,
2013-08-18 01:53:00,43.0,41.0,-100.00,NE,43,4.0,7.0,94,0.05,,,-99.99,0.000000,,2013-08-18 09:53:00,
2013-08-18 02:03:00,43.0,41.0,-100.00,NE,43,4.0,7.0,94,0.05,,,-99.99,0.000000,,2013-08-18 10:03:00,
2013-08-18 02:13:00,43.0,41.0,-100.00,NE,43,4.0,7.0,94,0.05,,,-99.99,0.000000,,2013-08-18 10:13:00,
2013-08-18 02:22:00,43.0,41.0,-100.00,NE,43,4.0,7.0,94,0.05,,,-99.99,0.000000,,2013-08-18 10:22:00,
2013-08-18 02:32:00,43.0,41.0,-100.00,NE,43,4.0,7.0,94,0.05,,,-99.99,0.000000,,2013-08-18 10:32:00,
2013-08-18 02:52:00,43.0,39.0,-100.00,NNE,17,5.0,8.0,87,0.02,,,0.11,0.000000,,2013-08-18 10:52:00,
2013-08-18 03:02:00,43.0,39.0,-100.00,NNE,17,5.0,8.0,87,0.02,,,0.11,0.000000,,2013-08-18 11:02:00,
2013-08-18 03:11:00,43.0,39.0,-100.00,NNE,17,5.0,8.0,87,0.02,,,0.11,0.000000,,2013-08-18 11:11:00,
2013-08-18 03:22:00,43.0,39.0,-100.00,NNE,17,5.0,8.0,87,0.02,,,0.11,0.000000,,2013-08-18 11:22:00,
2013-08-18 03:32:00,43.0,39.0,-100.00,NNE,17,5.0,8.0,87,0.02,,,0.11,0.000000,,2013-08-18 11:32:00,
2013-08-18 03:52:00,42.0,38.0,-100.00,North,357,4.0,8.0,85,-99.99,,,0.07,0.000000,,2013-08-18 11:52:00,
2013-08-18 04:01:00,42.0,38.0,-100.00,North,357,4.0,8.0,85,-99.99,,,0.07,0.000000,,2013-08-18 12:01:00,
2013-08-18 04:11:00,42.0,38.0,-100.00,North,357,4.0,8.0,85,-99.99,,,0.07,0.000000,,2013-08-18 12:11:00,
2013-08-18 04:21:00,42.0,38.0,-100.00,North,357,4.0,8.0,85,-99.99,,,0.07,0.000000,,2013-08-18 12:21:00,
2013-08-18 04:31:00,42.0,38.0,-100.00,North,357,4.0,8.0,85,-99.99,,,0.07,0.000000,,2013-08-18 12:31:00,
2013-08-18 04:52:00,43.0,38.0,-100.00,NNW,348,4.0,7.0,84,-99.99,,,0.03,0.000000,,2013-08-18 12:52:00,
2013-08-18 05:01:00,43.0,38.0,-100.00,NNW,348,4.0,7.0,84,-99.99,,,0.03,0.000000,,2013-08-18 13:01:00,
2013-08-18 05:11:00,43.0,38.0,-100.00,NNW,348,4.0,7.0,84,-99.99,,,0.03,0.000000,,2013-08-18 13:11:00,
2013-08-18 05:21:00,43.0,38.0,-100.00,NNW,348,4.0,7.0,84,-99.99,,,0.03,0.000000,,2013-08-18 13:21:00,
2013-08-18 05:32:00,43.0,38.0,-100.00,NNW,348,4.0,7.0,84,-99.99,,,0.03,0.000000,,2013-08-18 13:32:00,
2013-08-18 05:52:00,43.0,38.0,-100.00,North,358,2.0,8.0,82,0.01,,,0.04,0.000000,,2013-08-18 13:52:00,
2013-08-18 06:01:00,43.0,38.0,-100.00,North,358,2.0,8.0,82,0.01,,,0.04,0.000000,,2013-08-18 14:01:00,
2013-08-18 06:11:00,43.0,38.0,-100.00,North,358,2.0,8.0,82,0.01,,,0.04,0.000000,,2013-08-18 14:11:00,
2013-08-18 06:21:00,43.0,38.0,-100.00,North,358,2.0,8.0,82,0.01,,,0.04,0.000000,,2013-08-18 14:21:00,
2013-08-18 06:32:00,43.0,38.0,-100.00,North,358,2.0,8.0,82,0.01,,,0.04,0.000000,,2013-08-18 14:32:00,
2013-08-18 06:33:00,42.0,38.0,-100.00,NW,309,4.0,7.0,86,0.00,,,0.04,0.000000,,2013-08-18 14:33:00,
2013-08-18 06:53:00,42.0,38.0,-100.00,NW,309,4.0,7.0,86,0.00,,,0.04,0.000000,,2013-08-18 14:53:00,
2013-08-18 07:01:00,42.0,38.0,-100.00,NW,309,4.0,7.0,86,0.00,,,0.04,0.000000,,2013-08-18 15:01:00,
2013-08-18 07:11:00,42.0,38.0,-100.00,NW,309,4.0,7.0,86,0.00,,,0.04,0.000000,,2013-08-18 15:11:00,
2013-08-18 07:22:00,42.0,38.0,-100.00,NW,309,4.0,7.0,86,0.00,,,0.04,0.000000,,2013-08-18 15:22:00,
2013-08-18 07:33:00,42.0,38.0,-100.00,North,7,3.0,5.0,84,0.01,,,0.05,3.000000,,2013-08-18 15:33:00,
2013-08-18 07:54:00,42.0,38.0,-100.00,North,7,3.0,5.0,84,0.01,,,0.05,3.000000,,2013-08-18 15:54:00,
2013-08-18 08:03:00,42.0,38.0,-100.00,North,7,3.0,5.0,84,0.01,,,0.05,3.000000,,2013-08-18 16:03:00,
2013-08-18 08:13:00,42.0,38.0,-100.00,North,7,3.0,5.0,84,0.01,,,0.05,3.000000,,2013-08-18 16:13:00,
2013-08-18 08:23:00,42.0,38.0,-100.00,North,7,3.0,5.0,84,0.01,,,0.05,3.000000,,2013-08-18 16:23:00,
2013-08-18 08:33:00,43.0,39.0,-100.00,NNW,329,3.0,5.0,87,-99.99,,,0.03,41.000000,,2013-08-18 16:33:00,
2013-08-18 08:52:00,43.0,39.0,-100.00,NNW,329,3.0,5.0,87,-99.99,,,0.03,41.000000,,2013-08-18 16:52:00,
2013-08-18 09:02:00,43.0,39.0,-100.00,NNW,329,3.0,5.0,87,-99.99,,,0.03,41.000000,,2013-08-18 17:02:00,
2013-08-18 09:12:00,43.0,39.0,-100.00,NNW,329,3.0,5.0,87,-99.99,,,0.03,41.000000,,2013-08-18 17:12:00,
2013-08-18 09:23:00,43.0,39.0,-100.00,NNW,329,3.0,5.0,87,-99.99,,,0.03,41.000000,,2013-08-18 17:23:00,
2013-08-18 09:52:00,43.0,38.0,-100.00,NNE,14,4.0,6.0,83,-99.99,,,0.01,74.000000,,2013-08-18 17:52:00,
2013-08-18 10:02:00,43.0,38.0,-100.00,NNE,14,4.0,6.0,83,-99.99,,,0.01,74.000000,,2013-08-18 18:02:00,
2013-08-18 10:12:00,43.0,38.0,-100.00,NNE,14,4.0,6.0,83,-99.99,,,0.01,74.000000,,2013-08-18 18:12:00,
2013-08-18 10:21:00,43.0,38.0,-100.00,NNE,14,4.0,6.0,83,-99.99,,,0.01,74.000000,,2013-08-18 18:21:00,
2013-08-18 10:31:00,43.0,38.0,-100.00,NNE,14,4.0,6.0,83,-99.99,,,0.01,74.000000,,2013-08-18 18:31:00,
2013-08-18 10:52:00,43.0,40.0,-100.00,NE,37,4.0,6.0,88,0.02,,,0.03,74.000000,,2013-08-18 18:52:00,
2013-08-18 11:01:00,43.0,40.0,-100.00,NE,37,4.0,6.0,88,0.02,,,0.03,74.000000,,2013-08-18 19:01:00,
2013-08-18 11:11:00,43.0,40.0,-100.00,NE,37,4.0,6.0,88,0.02,,,0.03,74.000000,,2013-08-18 19:11:00,
2013-08-18 11:22:00,43.0,40.0,-100.00,NE,37,4.0,6.0,88,0.02,,,0.03,74.000000,,2013-08-18 19:22:00,
2013-08-18 11:31:00,43.0,40.0,-100.00,NE,37,4.0,6.0,88,0.02,,,0.03,74.000000,,2013-08-18 19:31:00,
2013-08-18 11:52:00,43.0,40.0,-100.00,North,356,4.0,8.0,90,0.01,,,0.03,98.000000,,2013-08-18 19:52:00,
2013-08-18 12:02:00,43.0,40.0,-100.00,North,356,4.0,8.0,90,0.01,,,0.03,98.000000,,2013-08-18 20:02:00,
2013-08-18 12:12:00,43.0,40.0,-100.00,North,356,4.0,8.0,90,0.01,,,0.03,98.000000,,2013-08-18 20:12:00,
2013-08-18 12:22:00,43.0,40.0,-100.00,North,356,4.0,8.0,90,0.01,,,0.03,98.000000,,2013-08-18 20:22:00,
2013-08-18 12:32:00,43.0,40.0,-100.00,North,356,4.0,8.0,90,0.01,,,0.03,98.000000,,2013-08-18 20:32:00,
2013-08-18 12:52:00,43.0,40.0,-100.00,North,1,2.0,7.0,90,-99.99,,,-99.99,125.000000,,2013-08-18 20:52:00,
2013-08-18 13:01:00,43.0,40.0,-100.00,North,1,2.0,7.0,90,-99.99,,,-99.99,125.000000,,2013-08-18 21:01:00,
2013-08-18 13:11:00,43.0,40.0,-100.00,North,1,2.0,7.0,90,-99.99,,,-99.99,125.000000,,2013-08-18 21:11:00,
2013-08-18 13:21:00,43.0,40.0,-100.00,North,1,2.0,7.0,90,-99.99,,,-99.99,125.000000,,2013-08-18 21:21:00,
2013-08-18 13:32:00,43.0,40.0,-100.00,North,1,2.0,7.0,90,-99.99,,,-99.99,125.000000,,2013-08-18 21:32:00,
2013-08-18 13:33:00,43.0,38.0,-100.00,NNE,25,3.0,5.0,83,-99.99,,,-99.99,205.000000,,2013-08-18 21:33:00,
2013-08-18 13:53:00,43.0,38.0,-100.00,NNE,25,3.0,5.0,83,-99.99,,,-99.99,205.000000,,2013-08-18 21:53:00,
2013-08-18 14:03:00,43.0,38.0,-100.00,NNE,25,3.0,5.0,83,-99.99,,,-99.99,205.000000,,2013-08-18 22:03:00,
2013-08-18 14:13:00,43.0,38.0,-100.00,NNE,25,3.0,5.0,83,-99.99,,,-99.99,205.000000,,2013-08-18 22:13:00,
2013-08-18 14:23:00,43.0,38.0,-100.00,NNE,25,3.0,5.0,83,-99.99,,,-99.99,205.000000,,2013-08-18 22:23:00,
2013-08-18 14:33:00,46.0,38.0,-100.00,East,81,2.0,4.0,74,0.00,,,-99.99,268.000000,,2013-08-18 22:33:00,
2013-08-18 14:52:00,46.0,38.0,-100.00,East,81,2.0,4.0,74,0.00,,,-99.99,268.000000,,2013-08-18 22:52:00,
2013-08-18 15:02:00,46.0,38.0,-100.00,East,81,2.0,4.0,74,0.00,,,-99.99,268.000000,,2013-08-18 23:02:00,
2013-08-18 15:11:00,46.0,38.0,-100.00,East,81,2.0,4.0,74,0.00,,,-99.99,268.000000,,2013-08-18 23:11:00,
2013-08-18 15:22:00,46.0,38.0,-100.00,East,81,2.0,4.0,74,0.00,,,-99.99,268.000000,,2013-08-18 23:22:00,
2013-08-18 15:52:00,48.0,39.0,-100.00,SSE,168,1.0,4.0,71,0.00,,,-99.99,341.000000,,2013-08-18 23:52:00,
2013-08-18 16:02:00,48.0,39.0,-100.00,SSE,168,1.0,4.0,71,0.00,,,-99.99,341.000000,,2013-08-19 00:02:00,
2013-08-18 16:11:00,48.0,39.0,-100.00,SSE,168,1.0,4.0,71,0.00,,,-99.99,341.000000,,2013-08-19 00:11:00,
2013-08-18 16:21:00,48.0,39.0,-100.00,SSE,168,1.0,4.0,71,0.00,,,-99.99,341.000000,,2013-08-19 00:21:00,
2013-08-18 16:31:00,48.0,39.0,-100.00,SSE,168,1.0,4.0,71,0.00,,,-99.99,341.000000,,2013-08-19 00:31:00,
2013-08-18 16:52:00,49.0,41.0,-100.00,SW,215,3.0,5.0,73,0.00,,,0.00,400.000000,,2013-08-19 00:52:00,
2013-08-18 17:02:00,49.0,41.0,-100.00,SW,215,3.0,5.0,73,0.00,,,0.00,400.000000,,2013-08-19 01:02:00,
2013-08-18 17:11:00,49.0,41.0,-100.00,SW,215,3.0,5.0,73,0.00,,,0.00,400.000000,,2013-08-19 01:11:00,
2013-08-18 17:22:00,49.0,41.0,-100.00,SW,215,3.0,5.0,73,0.00,,,0.00,400.000000,,2013-08-19 01:22:00,
2013-08-18 17:31:00,49.0,41.0,-100.00,SW,215,3.0,5.0,73,0.00,,,0.00,400.000000,,2013-08-19 01:31:00,
2013-08-18 17:52:00,47.0,38.0,-100.00,SW,226,3.0,7.0,72,0.00,,,-99.99,243.000000,,2013-08-19 01:52:00,
2013-08-18 18:06:00,47.0,38.0,-100.00,SW,226,3.0,7.0,72,0.00,,,-99.99,243.000000,,2013-08-19 02:06:00,
2013-08-18 18:11:00,47.0,38.0,-100.00,SW,226,3.0,7.0,72,0.00,,,-99.99,243.000000,,2013-08-19 02:11:00,
2013-08-18 18:21:00,47.0,38.0,-100.00,SW,226,3.0,7.0,72,0.00,,,-99.99,243.000000,,2013-08-19 02:21:00,
2013-08-18 18:32:00,47.0,38.0,-100.00,SW,226,3.0,7.0,72,0.00,,,-99.99,243.000000,,2013-08-19 02:32:00,
2013-08-18 18:33:00,47.0,40.0,-100.00,SSE,149,2.0,4.0,77,0.00,,,0.00,290.000000,,2013-08-19 02:33:00,
2013-08-18 18:52:00,47.0,40.0,-100.00,SSE,149,2.0,4.0,77,0.00,,,0.00,290.000000,,2013-08-19 02:52:00,
2013-08-18 19:01:00,47.0,40.0,-100.00,SSE,149,2.0,4.0,77,0.00,,,0.00,290.000000,,2013-08-19 03:01:00,
2013-08-18 19:11:00,47.0,40.0,-100.00,SSE,149,2.0,4.0,77,0.00,,,0.00,290.000000,,2013-08-19 03:11:00,
2013-08-18 19:21:00,47.0,40.0,-100.00,SSE,149,2.0,4.0,77,0.00,,,0.00,290.000000,,2013-08-19 03:21:00,
2013-08-18 19:33:00,46.0,40.0,-100.00,WSW,258,3.0,5.0,80,0.00,,,0.00,178.000000,,2013-08-19 03:33:00,
2013-08-18 19:53:00,46.0,40.0,-100.00,WSW,258,3.0,5.0,80,0.00,,,0.00,178.000000,,2013-08-19 03:53:00,
2013-08-18 20:03:00,46.0,40.0,-100.00,WSW,258,3.0,5.0,80,0.00,,,0.00,178.000000,,2013-08-19 04:03:00,
2013-08-18 20:12:00,46.0,40.0,-100.00,WSW,258,3.0,5.0,80,0.00,,,0.00,178.000000,,2013-08-19 04:12:00,
2013-08-18 20:23:00,46.0,40.0,-100.00,WSW,258,3.0,5.0,80,0.00,,,0.00,178.000000,,2013-08-19 04:23:00,
2013-08-18 20:33:00,45.0,40.0,-100.00,SSW,196,1.0,6.0,84,0.00,,,0.00,71.000000,,2013-08-19 04:33:00,
2013-08-18 21:22:00,45.0,40.0,-100.00,SSW,196,1.0,6.0,84,0.00,,,0.00,71.000000,,2013-08-19 05:22:00,
2013-08-18 21:52:00,44.0,41.0,-100.00,West,261,4.0,6.0,89,0.00,,,0.00,22.000000,,2013-08-19 05:52:00,
2013-08-18 22:02:00,44.0,41.0,-100.00,West,261,4.0,6.0,89,0.00,,,0.00,22.000000,,2013-08-19 06:02:00,
2013-08-18 22:11:00,44.0,41.0,-100.00,West,261,4.0,6.0,89,0.00,,,0.00,22.000000,,2013-08-19 06:11:00,
2013-08-18 22:21:00,44.0,41.0,-100.00,West,261,4.0,6.0,89,0.00,,,0.00,22.000000,,2013-08-19 06:21:00,
2013-08-18 22:32:00,44.0,41.0,-100.00,West,261,4.0,6.0,89,0.00,,,0.00,22.000000,,2013-08-19 06:32:00,
2013-08-18 22:52:00,43.0,42.0,-100.00,WSW,255,2.0,5.0,95,0.01,,,-99.99,1.000000,,2013-08-19 06:52:00,
2013-08-18 23:01:00,43.0,42.0,-100.00,WSW,255,2.0,5.0,95,0.01,,,-99.99,1.000000,,2013-08-19 07:01:00,
2013-08-18 23:11:00,43.0,42.0,-100.00,WSW,255,2.0,5.0,95,0.01,,,-99.99,1.000000,,2013-08-19 07:11:00,
2013-08-18 23:21:00,43.0,42.0,-100.00,WSW,255,2.0,5.0,95,0.01,,,-99.99,1.000000,,2013-08-19 07:21:00,
2013-08-18 23:31:00,43.0,42.0,-100.00,WSW,255,2.0,5.0,95,0.01,,,-99.99,1.000000,,2013-08-19 07:31:00,
2013-08-18 23:52:00,42.0,42.0,-100.00,West,273,1.0,3.0,99,-99.99,,,-99.99,0.000000,,2013-08-19 07:52:00,